Location: Valdosta
(30.8330°N, 83.2790°W)
Time: 01:54:12
(UTC-04:00)

Amateur Radio Satellites - All Passes

Search period start: 22 August 2014 01:24
Search period end: 23 August 2014 01:24
Location: Valdosta, 30.8330°N, 83.2790°W

Satellite Date Start Highest point End Downlink Frequencies (MHz)
Time Altitude Azimuth
Oscar 19 22 Aug 01:54:00 01:56:26 13° 93° (E) 01:58:51 437.125 CW, 437.150 USB
KITSAT 1 22 Aug 02:11:34 02:19:39 77° 296° (WNW) 02:27:47 435.175 FM
Oscar 16 22 Aug 02:25:13 02:29:50 31° 98° (E) 02:34:24 437.025 USB, Beacon 2401.1428
MaSat-1 22 Aug 02:26:37 02:31:13 67° 251° (WSW) 02:35:10 437.345 MHz
AO-27 22 Aug 02:30:30 02:32:48 13° 94° (E) 02:35:06 436.795 MHz FM
Saudisat 1A 22 Aug 03:07:22 03:08:07 10° 311° (NW) 03:08:52 436.775 MHz
Oscar 19 22 Aug 03:30:56 03:36:00 54° 286° (WNW) 03:41:02 437.125 CW, 437.150 USB
AO-Echo 22 Aug 03:36:29 03:41:12 78° 102° (ESE) 03:45:52 ?
Gurwin Techsat 1B 22 Aug 03:40:48 03:45:27 31° 98° (E) 03:50:05 435.225 FM
ITAMSAT 1 22 Aug 03:40:59 03:46:10 77° 103° (ESE) 03:51:20 435.822 SSB
JAS-1B 22 Aug 03:46:40 03:53:42 63° 101° (E) 03:59:40 435.800 - 435.900 CW/SSB
Uribyol 2 22 Aug 03:53:31 03:58:41 74° 284° (WNW) 04:03:51 436.500 FM
Oscar 16 22 Aug 04:04:52 04:08:57 24° 291° (WNW) 04:13:02 437.025 USB, Beacon 2401.1428
OPAL 22 Aug 04:07:11 04:10:33 18° 65° (ENE) 04:13:56 ?
AO-27 22 Aug 04:07:30 04:12:33 55° 286° (WNW) 04:17:35 436.795 MHz FM
KITSAT 1 22 Aug 04:12:06 04:16:20 15° 316° (NW) 04:20:36 435.175 FM
Sapphire 22 Aug 04:19:13 04:22:27 16° 53° (NE) 04:25:40 437.095 MHz 1200 baud AX-25 AFSK
TMSAT-1 22 Aug 04:38:14 04:43:33 87° 103° (ESE) 04:48:50 436.925 FM
PCSat 22 Aug 04:48:34 04:53:22 31° 59° (ENE) 04:58:07 145.825 MHz
AO-7 22 Aug 05:18:08 05:25:54 43° 101° (E) 05:33:37 29.400 - 29.500 MHz
Gurwin Techsat 1B 22 Aug 05:20:57 05:25:13 25° 291° (WNW) 05:29:29 435.225 FM
JAS-1B 22 Aug 05:39:10 05:43:21 17° 301° (WNW) 05:47:12 435.800 - 435.900 CW/SSB
OPAL 22 Aug 05:44:25 05:49:04 40° 259° (W) 05:53:47 ?
Uosat F 22 Aug 05:56:44 06:01:45 83° 284° (WNW) 06:06:44 435.120 FM
Sapphire 22 Aug 06:00:54 06:06:14 59° 249° (WSW) 06:11:31 437.095 MHz 1200 baud AX-25 AFSK
PCSat 22 Aug 06:32:07 06:36:36 27° 253° (WSW) 06:41:04 145.825 MHz
SO-50 22 Aug 06:47:52 06:52:15 61° 299° (WNW) 06:56:44 436.795 FM
Hamsat 22 Aug 06:57:06 07:01:06 35° 98° (E) 07:05:04 145.90 MHz
AO-7 22 Aug 07:11:11 07:18:24 35° 296° (WNW) 07:25:37 29.400 - 29.500 MHz
STRAND 1 22 Aug 07:12:19 07:17:08 44° 73° (ENE) 07:21:58 ?
JAS-2 22 Aug 07:51:03 07:56:13 74° 284° (WNW) 08:01:38 435.800 - 435.900 CW/SSB, 435.910 FM
UOSAT-12 22 Aug 08:00:27 08:04:50 49° 114° (ESE) 08:09:19 437.025 FM, 437.400 FM
SO-67 22 Aug 08:05:45 08:08:42 26° 97° (E) 08:11:38 435.3500 MHz FM
Hamsat 22 Aug 08:34:12 08:36:43 15° 291° (WNW) 08:39:13 145.90 MHz
STRAND 1 22 Aug 08:53:22 08:56:27 16° 265° (W) 08:59:32 ?
RS-15 22 Aug 09:31:31 09:42:34 66° 112° (ESE) 09:53:19 29.354 - 29.394 USB, Beacon 29.352 USB
HO-68 22 Aug 09:37:18 09:43:06 26° 97° (E) 09:48:51 435.675 MHz FM
SO-67 22 Aug 09:40:10 09:41:27 12° 290° (WNW) 09:42:43 435.3500 MHz FM
UOSAT-12 22 Aug 09:42:32 09:45:14 15° 309° (NW) 09:47:58 437.025 FM, 437.400 FM
Saudisat 1A 22 Aug 09:57:25 09:59:29 13° 51° (NE) 10:01:33 436.775 MHz
KITSAT 1 22 Aug 10:12:14 10:18:08 22° 49° (NE) 10:23:59 435.175 FM
UKube-1 22 Aug 11:12:23 11:16:40 61° 285° (WNW) 11:20:56 145.840 MHz, 145.915 MHz
HO-68 22 Aug 11:24:08 11:30:52 47° 291° (WNW) 11:37:36 435.675 MHz FM
FUNcube-1 22 Aug 11:28:15 11:32:28 40° 99° (E) 11:36:45 145.950 - 145.970 MHz USB
Oscar 11 22 Aug 11:28:27 11:32:48 67° 284° (WNW) 11:37:07 145.825 FM, Beacon 2401.500 USB
Saudisat 1A 22 Aug 11:35:03 11:39:21 53° 246° (WSW) 11:43:36 436.775 MHz
RS-15 22 Aug 11:46:10 11:55:32 31° 312° (NW) 12:04:51 29.354 - 29.394 USB, Beacon 29.352 USB
KITSAT 1 22 Aug 12:06:10 12:14:13 75° 247° (WSW) 12:22:13 435.175 FM
FUNcube-1 22 Aug 13:06:07 13:08:30 14° 291° (WNW) 13:10:53 145.950 - 145.970 MHz USB
Oscar 19 22 Aug 13:06:52 13:08:33 12° 65° (ENE) 13:10:15 437.125 CW, 437.150 USB
Oscar 16 22 Aug 13:37:13 13:41:27 27° 70° (ENE) 13:45:42 437.025 USB, Beacon 2401.1428
AO-27 22 Aug 13:44:18 13:46:18 12° 65° (ENE) 13:48:18 436.795 MHz FM
ISS 22 Aug 13:48:28 13:51:46 70° 133° (SE) 13:55:04 145.800 FM
JAS-1B 22 Aug 14:21:27 14:30:26 42° 68° (ENE) 14:39:09 435.800 - 435.900 CW/SSB
MaSat-1 22 Aug 14:35:57 14:37:13 11° 98° (E) 14:38:31 437.345 MHz
Oscar 19 22 Aug 14:42:11 14:47:16 66° 258° (WSW) 14:52:24 437.125 CW, 437.150 USB
AO-Echo 22 Aug 14:43:32 14:48:38 58° 75° (ENE) 14:53:37 ?
ITAMSAT 1 22 Aug 14:53:32 14:58:40 67° 75° (ENE) 15:03:48 435.822 SSB
Gurwin Techsat 1B 22 Aug 14:56:46 15:01:16 29° 70° (ENE) 15:05:46 435.225 FM
Uribyol 2 22 Aug 15:05:53 15:11:03 85° 257° (WSW) 15:16:14 436.500 FM
Oscar 16 22 Aug 15:16:19 15:20:39 27° 263° (W) 15:25:00 437.025 USB, Beacon 2401.1428
AO-27 22 Aug 15:20:05 15:25:13 63° 258° (WSW) 15:30:22 436.795 MHz FM
SO-50 22 Aug 15:24:53 15:29:01 28° 56° (NE) 15:33:09 436.795 FM
ISS 22 Aug 15:27:46 15:28:49 11° 328° (NNW) 15:29:51 145.800 FM
TMSAT-1 22 Aug 15:53:27 15:58:44 79° 76° (ENE) 16:04:02 436.925 FM
PANSAT 22 Aug 16:04:11 16:07:25 26° 161° (SSE) 16:10:39 not established
MaSat-1 22 Aug 16:09:06 16:13:33 57° 294° (WNW) 16:18:31 437.345 MHz
JAS-1B 22 Aug 16:11:19 16:20:34 46° 261° (W) 16:29:43 435.800 - 435.900 CW/SSB
AO-7 22 Aug 16:11:20 16:18:45 37° 65° (ENE) 16:26:09 29.400 - 29.500 MHz
AO-Echo 22 Aug 16:25:31 16:27:36 12° 266° (W) 16:29:40 ?
RS-15 22 Aug 16:31:14 16:33:59 11° 26° (NNE) 16:36:44 29.354 - 29.394 USB, Beacon 29.352 USB
Gurwin Techsat 1B 22 Aug 16:36:41 16:41:06 27° 263° (W) 16:45:33 435.225 FM
UOSAT-12 22 Aug 16:37:30 16:39:06 12° 49° (NE) 16:40:41 437.025 FM, 437.400 FM
ITAMSAT 1 22 Aug 16:37:52 16:38:30 10° 267° (W) 16:39:07 435.822 SSB
Uosat F 22 Aug 17:04:27 17:09:27 76° 75° (ENE) 17:14:28 435.120 FM
SO-50 22 Aug 17:05:27 17:09:27 26° 249° (WSW) 17:13:29 436.795 FM
PANSAT 22 Aug 17:43:34 17:47:19 54° 173° (S) 17:51:05 not established
Hamsat 22 Aug 17:46:57 17:48:59 13° 68° (ENE) 17:51:01 145.90 MHz
JAS-2 22 Aug 17:57:40 18:03:09 27° 70° (ENE) 18:08:09 435.800 - 435.900 CW/SSB, 435.910 FM
OPAL 22 Aug 17:59:13 18:04:27 87° 105° (ESE) 18:09:40 ?
AO-7 22 Aug 18:03:36 18:11:18 41° 259° (W) 18:19:03 29.400 - 29.500 MHz
UOSAT-12 22 Aug 18:15:02 18:19:43 71° 244° (WSW) 18:24:19 437.025 FM, 437.400 FM
RS-15 22 Aug 18:39:41 18:50:13 46° 55° (NE) 19:01:06 29.354 - 29.394 USB, Beacon 29.352 USB
Sapphire 22 Aug 18:54:12 18:59:11 40° 109° (ESE) 19:04:11 437.095 MHz 1200 baud AX-25 AFSK
Hamsat 22 Aug 19:20:34 19:24:32 39° 262° (W) 19:28:33 145.90 MHz
PANSAT 22 Aug 19:23:36 19:27:22 56° 186° (S) 19:31:08 not established
PCSat 22 Aug 19:24:09 19:29:33 87° 113° (ESE) 19:34:59 145.825 MHz
STRAND 1 22 Aug 19:29:02 19:33:04 23° 97° (E) 19:37:05 ?
JAS-2 22 Aug 19:41:30 19:47:59 41° 260° (W) 19:53:48 435.800 - 435.900 CW/SSB, 435.910 FM
HO-68 22 Aug 20:04:54 20:06:23 11° 58° (ENE) 20:07:51 435.675 MHz FM
SO-67 22 Aug 20:05:42 20:09:10 86° 259° (W) 20:12:38 435.3500 MHz FM
Sapphire 22 Aug 20:38:32 20:42:41 22° 304° (WNW) 20:46:51 437.095 MHz 1200 baud AX-25 AFSK
RS-15 22 Aug 20:52:06 21:02:25 45° 252° (WSW) 21:13:12 29.354 - 29.394 USB, Beacon 29.352 USB
PANSAT 22 Aug 21:03:59 21:07:17 27° 198° (SSW) 21:10:34 not established
STRAND 1 22 Aug 21:07:47 21:12:11 30° 289° (WNW) 21:16:35 ?
PCSat 22 Aug 21:12:11 21:13:37 11° 310° (NW) 21:15:03 145.825 MHz
HO-68 22 Aug 21:45:47 21:52:54 77° 73° (ENE) 22:00:03 435.675 MHz FM
ISS 22 Aug 21:58:05 22:01:25 75° 45° (NE) 22:04:44 145.800 FM
UKube-1 22 Aug 22:02:20 22:06:35 55° 75° (ENE) 22:10:51 145.840 MHz, 145.915 MHz
Oscar 11 22 Aug 22:18:01 22:22:08 46° 75° (ENE) 22:26:17 145.825 FM, Beacon 2401.500 USB
FUNcube-1 22 Aug 22:21:04 22:23:35 16° 70° (ENE) 22:26:07 145.950 - 145.970 MHz USB
HO-68 22 Aug 23:37:31 23:41:05 14° 266° (W) 23:44:41 435.675 MHz FM
FUNcube-1 22 Aug 23:56:05 23:59:42 29° 262° (W) 00:03:21 145.950 - 145.970 MHz USB
Oscar 11 22 Aug 23:57:31 23:58:29 11° 267° (W) 23:59:28 145.825 FM, Beacon 2401.500 USB
Saudisat 1A 23 Aug 00:00:48 00:01:25 10° 107° (ESE) 00:02:02 436.775 MHz
KITSAT 1 23 Aug 00:34:19 00:40:55 28° 105° (ESE) 00:47:30 435.175 FM
